QPF
0.00 0.00 0.00 0.00 0.00 0.00 0.00 0.00 0.00 0.00 0.00 0.00 0.00 0.00 0.00 0.00 0.00 0.00 0.00 0.00 0.00 0.00 0.00 0.00 0.00 0.00 0.01 0.01 0.01 0.01 0.02 0.02 0.02 0.02 0.03 0.04 0.04 0.05
0.00 0.00 0.00 0.00 0.00 0.00 0.00 0.00 0.00 0.00 0.00 0.00 0.00 0.00 0.00 0.00 0.00 0.00 0.00 0.00 0.00 0.00 0.00 0.00 0.00 0.01 0.01 0.01 0.01 0.01 0.02 0.02 0.03 0.03 0.04 0.04 0.05 0.05
0.00 0.00 0.00 0.00 0.00 0.00 0.00 0.00 0.00 0.01 0.01 0.01 0.00 0.00 0.00 0.00 0.00 0.00 0.00 0.00 0.00 0.00 0.00 0.00 0.01 0.01 0.01 0.01 0.01 0.02 0.02 0.02 0.03 0.03 0.04 0.05 0.05 0.06
0.00 0.00 0.00 0.00 0.01 0.01 0.01 0.01 0.01 0.01 0.01 0.01 0.01 0.00 0.00 0.00 0.00 0.00 0.00 0.00 0.00 0.00 0.00 0.00 0.01 0.01 0.01 0.01 0.01 0.02 0.02 0.02 0.02 0.03 0.03 0.04 0.05 0.05
0.00 0.01 0.01 0.01 0.01 0.01 0.01 0.01 0.01 0.01 0.00 0.00 0.00 0.00 0.00 0.00 0.00 0.00 0.00 0.00 0.01 0.00 0.00 0.00 0.01 0.01 0.01 0.01 0.01 0.01 0.02 0.02 0.02 0.03 0.03 0.04 0.04 0.04
0.00 0.01 0.01 0.01 0.01 0.01 0.01 0.00 0.00 0.00 0.00 0.00 0.00 0.00 0.00 0.00 0.00 0.00 0.00 0.00 0.00 0.00 0.00 0.00 0.00 0.00 0.00 0.01 0.01 0.01 0.01 0.01 0.02 0.02 0.03 0.03 0.03 0.03
0.01 0.01 0.01 0.01 0.00 0.00 0.00 0.00 0.00 0.00 0.00 0.00 0.00 0.00 0.00 0.00 0.00 0.00 0.01 0.00 0.00 0.00 0.00 0.00 0.00 0.00 0.00 0.01 0.01 0.01 0.01 0.01 0.02 0.02 0.03 0.03 0.03 0.03
0.00 0.00 0.00 0.00 0.00 0.00 0.00 0.00 0.00 0.00 0.01 0.01 0.01 0.01 0.01 0.01 0.01 0.01 0.01 0.01 0.01 0.00 0.00 0.00 0.00 0.01 0.01 0.01 0.01 0.01 0.01 0.01 0.02 0.02 0.02 0.02 0.03 0.03
0.00 0.00 0.00 0.00 0.00 0.00 0.00 0.00 0.00 0.01 0.01 0.01 0.02 0.02 0.02 0.02 0.02 0.02 0.02 0.02 0.01 0.01 0.01 0.01 0.00 0.01 0.01 0.01 0.00 0.01 0.01 0.01 0.01 0.01 0.02 0.02 0.02 0.02
0.00 0.00 0.00 0.00 0.00 0.00 0.00 0.00 0.00 0.00 0.01 0.01 0.01 0.01 0.01 0.01 0.01 0.01 0.01 0.01 0.01 0.00 0.01 0.01 0.01 0.00 0.00 0.00 0.00 0.00 0.01 0.01 0.01 0.01 0.02 0.02 0.02 0.02
0.00 0.00 0.00 0.00 0.00 0.00 0.00 0.00 0.00 0.00 0.00 0.01 0.01 0.01 0.01 0.01 0.01 0.01 0.01 0.02 0.01 0.00 0.00 0.01 0.00 0.00 0.00 0.00 0.00 0.00 0.00 0.01 0.01 0.01 0.01 0.02 0.02 0.02
0.01 0.01 0.01 0.00 0.00 0.00 0.00 0.00 0.00 0.00 0.01 0.01 0.01 0.01 0.01 0.01 0.01 0.01 0.02 0.02 0.02 0.01 0.00 0.01 0.01 0.01 0.02 0.01 0.00 0.00 0.00 0.00 0.00 0.00 0.00 0.01 0.01 0.01
0.01 0.00 0.00 0.00 0.00 0.00 0.00 0.00 0.00 0.00 0.00 0.01 0.01 0.01 0.01 0.01 0.01 0.01 0.01 0.02 0.02 0.02 0.01 0.02 0.03 0.02 0.03 0.01 0.00 0.00 0.00 0.00 0.00 0.00 0.00 0.00 0.01 0.01
0.00 0.00 0.00 0.00 0.00 0.00 0.00 0.00 0.01 0.01 0.00 0.00 0.00 0.00 0.00 0.00 0.00 0.01 0.01 0.01 0.02 0.02 0.02 0.02 0.03 0.03 0.03 0.02 0.01 0.00 0.00 0.00 0.00 0.00 0.00 0.00 0.00 0.01
0.00 0.00 0.00 0.00 0.00 0.00 0.00 0.00 0.01 0.00 0.00 0.00 0.00 0.00 0.00 0.00 0.01 0.01 0.01 0.00 0.00 0.01 0.01 0.01 0.02 0.02 0.03 0.03 0.02 0.00 0.00 0.00 0.00 0.00 0.00 0.00 0.00 0.00
0.00 0.00 0.00 0.00 0.00 0.00 0.00 0.00 0.00 0.00 0.00 0.01 0.01 0.01 0.01 0.01 0.01 0.01 0.01 0.00 0.01 0.00 0.00 0.00 0.01 0.01 0.01 0.01 0.01 0.01 0.01 0.01 0.01 0.00 0.00 0.00 0.00 0.00
0.00 0.00 0.00 0.00 0.00 0.00 0.00 0.00 0.00 0.00 0.00 0.00 0.00 0.01 0.01 0.01 0.01 0.01 0.01 0.01 0.01 0.01 0.01 0.01 0.00 0.00 0.01 0.01 0.01 0.01 0.00 0.01 0.01 0.01 0.01 0.00 0.00 0.00
0.00 0.00 0.00 0.00 0.00 0.00 0.00 0.00 0.00 0.00 0.00 0.00 0.00 0.00 0.01 0.01 0.01 0.01 0.01 0.01 0.01 0.01 0.01 0.01 0.01 0.01 0.01 0.00 0.00 0.00 0.01 0.01 0.00 0.00 0.01 0.01 0.00 0.00
0.00 0.00 0.00 0.00 0.00 0.00 0.00 0.00 0.00 0.00 0.00 0.00 0.00 0.01 0.01 0.01 0.01 0.01 0.01 0.01 0.01 0.01 0.01 0.01 0.01 0.02 0.02 0.01 0.01 0.00 0.01 0.01 0.01 0.00 0.01 0.01 0.02 0.01
0.00 0.00 0.00 0.00 0.00 0.00 0.00 0.00 0.00 0.00 0.00 0.00 0.01 0.01 0.01 0.01 0.01 0.01 0.01 0.02 0.02 0.02 0.01 0.01 0.01 0.03 0.04 0.04 0.02 0.01 0.01 0.02 0.02 0.01 0.01 0.00 0.01 0.00
0.00 0.00 0.00 0.00 0.00 0.00 0.00 0.00 0.00 0.00 0.00 0.00 0.01 0.01 0.01 0.01 0.01 0.01 0.01 0.01 0.01 0.01 0.02 0.02 0.01 0.02 0.02 0.02 0.02 0.01 0.00 0.01 0.02 0.03 0.02 0.02 0.01 0.00
0.00 0.00 0.00 0.00 0.00 0.00 0.00 0.00 0.00 0.00 0.00 0.00 0.01 0.01 0.01 0.01 0.01 0.01 0.02 0.02 0.02 0.02 0.02 0.01 0.01 0.01 0.01 0.02 0.02 0.01 0.00 0.00 0.00 0.01 0.01 0.03 0.04 0.04
0.00 0.00 0.00 0.00 0.00 0.00 0.00 0.00 0.00 0.00 0.00 0.00 0.00 0.01 0.01 0.01 0.01 0.02 0.02 0.01 0.01 0.01 0.01 0.01 0.01 0.01 0.01 0.01 0.01 0.01 0.01 0.00 0.00 0.00 0.01 0.01 0.02 0.03
MSLP
1018.48 1018.82 1019.16 1019.48 1019.74 1019.92 1020.01 1020.01 1019.94 1019.82 1019.67 1019.53 1019.41 1019.31 1019.25 1019.21 1019.18 1019.13 1019.07 1018.98 1018.87 1018.73 1018.57 1018.40 1018.22 1018.03 1017.83 1017.61 1017.37 1017.10 1016.81 1016.50 1016.17 1015.83 1015.50 1015.16 1014.85 1014.55
1017.92 1018.21 1018.52 1018.81 1019.09 1019.31 1019.47 1019.56 1019.59 1019.56 1019.49 1019.39 1019.29 1019.18 1019.07 1018.95 1018.82 1018.69 1018.54 1018.39 1018.23 1018.07 1017.91 1017.76 1017.61 1017.45 1017.29 1017.10 1016.88 1016.63 1016.34 1016.03 1015.69 1015.35 1015.00 1014.67 1014.35 1014.06
1017.38 1017.62 1017.89 1018.17 1018.44 1018.70 1018.93 1019.10 1019.23 1019.30 1019.32 1019.29 1019.21 1019.09 1018.94 1018.75 1018.55 1018.32 1018.09 1017.86 1017.64 1017.45 1017.28 1017.14 1017.00 1016.87 1016.73 1016.56 1016.36 1016.11 1015.83 1015.51 1015.17 1014.83 1014.48 1014.16 1013.85 1013.57
1016.87 1017.07 1017.30 1017.56 1017.84 1018.12 1018.40 1018.66 1018.87 1019.03 1019.13 1019.15 1019.11 1018.99 1018.81 1018.58 1018.30 1018.00 1017.70 1017.40 1017.14 1016.91 1016.73 1016.58 1016.45 1016.33 1016.19 1016.03 1015.83 1015.59 1015.30 1014.98 1014.64 1014.29 1013.95 1013.63 1013.33 1013.06
1016.40 1016.58 1016.78 1017.02 1017.29 1017.59 1017.90 1018.21 1018.48 1018.71 1018.87 1018.94 1018.93 1018.83 1018.64 1018.37 1018.06 1017.71 1017.36 1017.02 1016.73 1016.48 1016.27 1016.11 1015.98 1015.85 1015.71 1015.54 1015.33 1015.07 1014.77 1014.44 1014.09 1013.74 1013.41 1013.09 1012.80 1012.54
1016.00 1016.16 1016.34 1016.56 1016.82 1017.11 1017.43 1017.75 1018.05 1018.31 1018.51 1018.61 1018.63 1018.54 1018.36 1018.09 1017.77 1017.41 1017.05 1016.70 1016.40 1016.14 1015.93 1015.76 1015.61 1015.47 1015.30 1015.11 1014.87 1014.58 1014.26 1013.91 1013.54 1013.19 1012.85 1012.54 1012.25 1011.99
1015.67 1015.82 1015.99 1016.18 1016.42 1016.68 1016.98 1017.28 1017.57 1017.83 1018.03 1018.15 1018.18 1018.11 1017.95 1017.71 1017.42 1017.09 1016.75 1016.43 1016.14 1015.89 1015.68 1015.51 1015.34 1015.17 1014.97 1014.74 1014.46 1014.13 1013.77 1013.38 1013.00 1012.62 1012.27 1011.96 1011.68 1011.43
1015.40 1015.56 1015.71 1015.88 1016.07 1016.29 1016.54 1016.80 1017.04 1017.27 1017.45 1017.56 1017.60 1017.56 1017.44 1017.24 1017.00 1016.73 1016.45 1016.18 1015.93 1015.71 1015.52 1015.34 1015.15 1014.95 1014.71 1014.43 1014.10 1013.72 1013.31 1012.88 1012.46 1012.06 1011.70 1011.37 1011.09 1010.84
1015.19 1015.34 1015.48 1015.62 1015.77 1015.93 1016.11 1016.30 1016.49 1016.66 1016.80 1016.90 1016.94 1016.93 1016.85 1016.72 1016.55 1016.36 1016.15 1015.95 1015.75 1015.57 1015.40 1015.22 1015.02 1014.79 1014.50 1014.17 1013.78 1013.35 1012.88 1012.41 1011.95 1011.52 1011.13 1010.80 1010.51 1010.26
1015.00 1015.15 1015.28 1015.39 1015.49 1015.60 1015.71 1015.82 1015.94 1016.05 1016.15 1016.23 1016.28 1016.29 1016.26 1016.20 1016.11 1016.00 1015.87 1015.74 1015.60 1015.46 1015.31 1015.13 1014.91 1014.65 1014.33 1013.95 1013.51 1013.02 1012.51 1012.00 1011.50 1011.03 1010.62 1010.26 1009.96 1009.71
1014.81 1014.96 1015.08 1015.16 1015.23 1015.29 1015.34 1015.39 1015.44 1015.51 1015.57 1015.63 1015.68 1015.72 1015.74 1015.75 1015.73 1015.69 1015.63 1015.56 1015.47 1015.36 1015.22 1015.04 1014.81 1014.52 1014.17 1013.75 1013.28 1012.75 1012.21 1011.66 1011.12 1010.63 1010.18 1009.80 1009.48 1009.22
1014.60 1014.76 1014.87 1014.95 1014.99 1015.02 1015.03 1015.03 1015.05 1015.07 1015.11 1015.17 1015.23 1015.30 1015.36 1015.41 1015.45 1015.47 1015.46 1015.43 1015.36 1015.27 1015.13 1014.94 1014.70 1014.39 1014.02 1013.58 1013.08 1012.54 1011.97 1011.39 1010.83 1010.31 1009.83 1009.42 1009.07 1008.79
1014.40 1014.56 1014.68 1014.76 1014.80 1014.81 1014.80 1014.79 1014.78 1014.80 1014.83 1014.88 1014.96 1015.05 1015.14 1015.23 1015.30 1015.34 1015.36 1015.34 1015.28 1015.18 1015.03 1014.83 1014.57 1014.25 1013.87 1013.42 1012.92 1012.37 1011.79 1011.20 1010.62 1010.07 1009.56 1009.12 1008.73 1008.42
1014.24 1014.42 1014.55 1014.64 1014.69 1014.70 1014.70 1014.68 1014.68 1014.69 1014.73 1014.79 1014.88 1014.99 1015.09 1015.19 1015.27 1015.33 1015.34 1015.31 1015.23 1015.11 1014.94 1014.71 1014.44 1014.10 1013.72 1013.27 1012.77 1012.23 1011.65 1011.05 1010.46 1009.88 1009.34 1008.86 1008.43 1008.07
1014.17 1014.36 1014.51 1014.62 1014.68 1014.71 1014.72 1014.72 1014.73 1014.75 1014.80 1014.88 1014.97 1015.09 1015.20 1015.29 1015.36 1015.40 1015.38 1015.32 1015.21 1015.05 1014.85 1014.60 1014.30 1013.95 1013.56 1013.12 1012.62 1012.08 1011.51 1010.90 1010.29 1009.69 1009.11 1008.58 1008.10 1007.68
1014.24 1014.44 1014.61 1014.73 1014.81 1014.86 1014.88 1014.90 1014.92 1014.95 1015.01 1015.09 1015.19 1015.30 1015.40 1015.48 1015.52 1015.53 1015.48 1015.37 1015.22 1015.02 1014.78 1014.49 1014.17 1013.81 1013.40 1012.95 1012.46 1011.91 1011.32 1010.71 1010.07 1009.43 1008.80 1008.22 1007.68 1007.21
1014.47 1014.68 1014.86 1014.99 1015.08 1015.14 1015.17 1015.19 1015.22 1015.26 1015.31 1015.39 1015.48 1015.58 1015.66 1015.71 1015.72 1015.69 1015.60 1015.45 1015.26 1015.01 1014.73 1014.41 1014.06 1013.67 1013.24 1012.77 1012.25 1011.68 1011.07 1010.42 1009.74 1009.05 1008.38 1007.73 1007.14 1006.61
1014.85 1015.07 1015.24 1015.37 1015.46 1015.51 1015.54 1015.55 1015.57 1015.60 1015.65 1015.72 1015.79 1015.86 1015.91 1015.94 1015.92 1015.85 1015.72 1015.54 1015.31 1015.03 1014.72 1014.36 1013.97 1013.55 1013.09 1012.58 1012.02 1011.40 1010.74 1010.04 1009.30 1008.56 1007.82 1007.11 1006.45 1005.86
1015.33 1015.54 1015.70 1015.82 1015.89 1015.93 1015.94 1015.94 1015.94 1015.95 1015.98 1016.02 1016.07 1016.11 1016.13 1016.13 1016.09 1015.99 1015.84 1015.64 1015.39 1015.08 1014.74 1014.35 1013.93 1013.46 1012.95 1012.39 1011.77 1011.09 1010.36 1009.59 1008.78 1007.97 1007.16 1006.39 1005.67 1005.02
1015.83 1016.03 1016.17 1016.27 1016.32 1016.33 1016.32 1016.29 1016.27 1016.26 1016.26 1016.27 1016.29 1016.30 1016.30 1016.28 1016.22 1016.11 1015.95 1015.74 1015.47 1015.16 1014.80 1014.39 1013.93 1013.43 1012.86 1012.24 1011.55 1010.79 1009.99 1009.13 1008.25 1007.36 1006.48 1005.63 1004.86 1004.16
1016.27 1016.44 1016.57 1016.64 1016.67 1016.66 1016.62 1016.58 1016.54 1016.50 1016.47 1016.46 1016.45 1016.44 1016.42 1016.38 1016.30 1016.19 1016.03 1015.83 1015.57 1015.26 1014.90 1014.48 1014.00 1013.46 1012.84 1012.16 1011.40 1010.58 1009.69 1008.75 1007.79 1006.82 1005.87 1004.96 1004.12 1003.37
1016.58 1016.73 1016.83 1016.88 1016.89 1016.87 1016.82 1016.77 1016.71 1016.66 1016.61 1016.58 1016.55 1016.52 1016.48 1016.43 1016.35 1016.25 1016.10 1015.91 1015.67 1015.38 1015.03 1014.61 1014.13 1013.56 1012.92 1012.19 1011.38 1010.49 1009.54 1008.53 1007.50 1006.46 1005.44 1004.47 1003.56 1002.75
1016.71 1016.84 1016.92 1016.96 1016.97 1016.95 1016.90 1016.85 1016.79 1016.73 1016.68 1016.64 1016.59 1016.55 1016.50 1016.45 1016.37 1016.27 1016.14 1015.98 1015.77 1015.50 1015.18 1014.78 1014.31 1013.75 1013.09 1012.34 1011.50 1010.58 1009.58 1008.52 1007.44 1006.34 1005.26 1004.23 1003.26 1002.37
Thickness
5580 5574 5568 5563 5557 5551 5544 5536 5527 5520 5519 5519 5515 5512 5505 5499 5493 5486 5479 5473 5467 5460 5454 5449 5444 5439 5434 5430 5426 5423 5420 5418 5416 5414 5413 5413 5413 5414
5575 5569 5562 5556 5550 5544 5537 5530 5523 5515 5509 5509 5505 5501 5495 5489 5482 5475 5468 5461 5454 5448 5441 5436 5430 5424 5420 5416 5412 5408 5405 5402 5400 5398 5397 5397 5397 5397
5569 5563 5557 5550 5543 5536 5530 5523 5515 5507 5501 5500 5495 5490 5484 5477 5471 5463 5456 5449 5442 5434 5428 5423 5417 5411 5406 5401 5397 5393 5390 5387 5384 5382 5381 5381 5380 5381
5564 5557 5550 5543 5536 5530 5522 5515 5508 5501 5493 5489 5485 5478 5473 5466 5459 5452 5444 5436 5429 5422 5416 5409 5404 5398 5393 5388 5383 5379 5376 5372 5369 5367 5366 5365 5364 5364
5558 5551 5543 5536 5529 5522 5515 5508 5501 5494 5486 5479 5474 5468 5462 5455 5447 5439 5431 5423 5416 5409 5403 5396 5390 5385 5380 5375 5370 5367 5362 5359 5355 5353 5350 5349 5348 5347
5552 5544 5537 5530 5523 5515 5508 5500 5492 5484 5477 5469 5463 5457 5449 5442 5433 5425 5419 5411 5403 5397 5390 5383 5377 5371 5366 5361 5357 5353 5349 5345 5342 5339 5336 5334 5333 5333
5544 5537 5530 5523 5516 5509 5501 5492 5484 5476 5467 5460 5453 5445 5437 5428 5420 5413 5405 5399 5391 5383 5376 5369 5364 5359 5354 5349 5344 5340 5337 5333 5329 5326 5323 5322 5320 5320
5536 5529 5523 5515 5508 5501 5494 5486 5477 5468 5459 5450 5442 5434 5426 5417 5409 5400 5390 5383 5378 5372 5363 5358 5352 5347 5342 5338 5333 5329 5325 5321 5317 5314 5312 5310 5309 5308
5529 5521 5515 5508 5501 5493 5485 5477 5469 5460 5452 5443 5433 5424 5416 5408 5398 5389 5378 5368 5362 5357 5350 5346 5341 5335 5331 5326 5321 5317 5313 5310 5307 5304 5302 5300 5299 5298
5521 5514 5506 5499 5492 5484 5476 5467 5458 5450 5442 5434 5425 5416 5406 5397 5387 5377 5367 5359 5352 5344 5337 5332 5330 5325 5321 5315 5311 5307 5303 5300 5298 5296 5294 5292 5291 5291
5512 5505 5498 5490 5483 5476 5467 5458 5449 5440 5432 5423 5415 5405 5396 5386 5376 5365 5355 5346 5341 5335 5328 5320 5318 5314 5312 5307 5302 5298 5294 5291 5289 5288 5286 5285 5284 5283
5502 5496 5489 5482 5474 5466 5457 5448 5438 5430 5422 5413 5404 5395 5385 5375 5365 5354 5344 5335 5328 5324 5319 5311 5306 5302 5302 5300 5294 5289 5286 5283 5282 5280 5278 5277 5276 5276
5493 5485 5479 5472 5464 5456 5448 5438 5430 5422 5412 5402 5393 5383 5373 5363 5354 5344 5335 5326 5319 5313 5309 5302 5297 5290 5285 5287 5286 5282 5278 5276 5274 5273 5271 5270 5270 5269
5485 5477 5469 5462 5455 5447 5438 5430 5421 5412 5401 5391 5380 5371 5362 5352 5344 5335 5327 5320 5313 5306 5301 5294 5288 5282 5278 5276 5276 5275 5272 5270 5268 5267 5265 5265 5264 5264
5476 5469 5461 5453 5445 5436 5428 5419 5410 5400 5390 5379 5370 5361 5351 5343 5335 5327 5320 5312 5306 5300 5294 5288 5282 5277 5271 5268 5267 5266 5265 5265 5263 5261 5260 5260 5260 5260
5466 5458 5451 5442 5434 5426 5417 5408 5399 5390 5380 5369 5360 5351 5342 5333 5326 5318 5311 5305 5298 5293 5288 5282 5276 5271 5266 5263 5261 5260 5258 5256 5257 5257 5256 5257 5257 5258
5456 5447 5438 5430 5422 5414 5406 5397 5388 5379 5369 5359 5350 5340 5332 5324 5317 5310 5303 5296 5290 5285 5280 5275 5270 5266 5262 5259 5257 5256 5254 5253 5252 5252 5252 5254 5256 5256
5447 5437 5429 5420 5413 5404 5396 5387 5378 5368 5359 5349 5339 5330 5323 5315 5308 5302 5295 5289 5282 5277 5272 5268 5264 5261 5258 5257 5256 5253 5250 5249 5249 5249 5249 5250 5253 5256
5436 5427 5419 5411 5403 5395 5386 5377 5368 5359 5349 5339 5330 5321 5314 5307 5300 5294 5288 5282 5276 5271 5266 5261 5257 5254 5251 5249 5250 5250 5247 5246 5246 5247 5247 5247 5249 5253
5425 5417 5410 5402 5394 5385 5376 5367 5358 5348 5339 5330 5321 5313 5305 5299 5293 5287 5281 5275 5270 5265 5260 5256 5251 5248 5245 5243 5243 5245 5245 5243 5243 5244 5246 5248 5250 5254
5416 5408 5401 5392 5384 5375 5366 5357 5348 5339 5330 5321 5312 5305 5298 5291 5285 5280 5274 5269 5264 5259 5255 5251 5247 5245 5242 5240 5238 5240 5242 5242 5242 5242 5244 5246 5249 5252
5407 5400 5392 5383 5375 5365 5356 5347 5338 5329 5321 5312 5304 5297 5290 5284 5278 5272 5267 5262 5258 5254 5250 5247 5244 5241 5239 5237 5236 5236 5238 5241 5242 5244 5245 5246 5245 5248
5399 5391 5383 5374 5366 5357 5348 5339 5330 5321 5313 5304 5297 5290 5283 5277 5271 5266 5262 5257 5253 5249 5246 5242 5240 5237 5235 5234 5233 5233 5234 5237 5240 5242 5245 5248 5249 5250